Date,TemperatureHighF,TemperatureAvgF,TemperatureLowF,DewpointHighF,DewpointAvgF,DewpointLowF,HumidityHigh,HumidityAvg,HumidityLow,PressureMaxIn,PressureMinIn,WindSpeedMaxMPH,WindSpeedAvgMPH,GustSpeedMaxMPH,PrecipitationSumIn
2013-1-1,39.8,35.5,30.7,36.0,32.8,29.0,95,90,78,30.40,30.25,6,1,0,0.01
2013-1-2,44.7,39.1,35.4,39.0,31.6,25.0,92,75,60,30.25,30.09,5,1,0,0.00
2013-1-3,43.4,37.7,33.3,36.0,29.2,23.0,96,72,55,30.09,29.99,12,2,0,0.28
2013-1-4,50.2,43.9,37.5,47.0,42.2,37.0,98,93,84,30.20,30.06,15,3,0,0.02
2013-1-5,45.2,43.5,42.1,42.0,38.7,36.0,96,83,74,30.09,30.01,11,2,0,0.10
2013-1-6,45.3,43.1,40.2,42.0,40.6,39.0,96,91,83,30.07,29.88,12,4,0,0.01
2013-1-7,50.5,46.6,41.1,49.0,44.7,40.0,97,93,86,30.05,29.68,17,6,0,0.02
2013-1-8,51.5,46.9,42.2,51.0,45.5,41.0,99,95,89,30.05,29.62,18,5,0,0.71
2013-1-9,49.9,41.3,36.7,49.0,39.9,35.0,98,94,88,29.84,29.57,15,3,0,0.90
2013-1-10,38.4,36.4,34.5,36.0,34.5,31.0,96,93,84,30.02,29.84,7,1,0,0.02
2013-1-11,36.7,33.1,29.6,32.0,27.8,24.0,96,81,65,30.23,30.01,8,1,0,0.00
2013-1-12,36.2,31.0,27.2,33.0,27.4,26.0,97,87,72,30.34,30.22,10,1,0,0.01
2013-1-13,36.4,31.5,26.6,33.0,28.3,26.0,97,88,74,30.40,30.34,5,0,0,0.01
2013-1-14,37.7,34.8,32.5,35.0,31.2,28.0,92,86,79,30.47,30.37,5,1,0,0.00
2013-1-15,42.9,37.8,34.4,37.0,33.6,31.0,93,85,74,30.60,30.47,7,1,0,0.00
2013-1-16,41.0,36.0,30.7,38.0,33.1,30.0,97,89,78,30.58,30.42,10,1,0,0.00
2013-1-17,37.7,35.0,30.5,37.0,34.0,29.0,98,96,91,30.42,30.20,3,0,0,0.00
2013-1-18,35.7,7.8,34.4,35.0,-69.9,-99.9,98,23,98,30.25,30.16,6,1,0,0.01
2013-1-19,-200.0,0.0,200.0,-99.9,-99.9,-99.9,0,0,100,30.27,30.24,4,-24,0,0.00
2013-3-2,52.3,43.0,38.7,50.0,41.1,37.0,96,93,88,30.10,29.97,13,3,0,0.14
2013-3-3,50.3,41.9,36.9,40.0,36.8,35.0,96,83,58,30.20,30.09,9,1,0,0.01
2013-3-4,49.3,41.7,32.8,39.0,33.9,29.0,92,75,49,30.20,29.84,12,2,0,0.00
2013-3-5,49.2,44.5,42.4,42.0,37.3,28.0,94,77,54,29.83,29.63,8,2,0,0.00
2013-3-6,43.2,42.1,40.8,42.0,40.8,39.0,97,95,93,29.79,29.48,11,4,0,0.54
2013-3-7,51.0,45.0,41.8,44.0,42.3,41.0,98,90,72,29.99,29.80,12,2,0,0.18
2013-3-8,50.4,43.5,38.7,43.0,40.1,38.0,100,88,70,30.14,29.97,13,2,0,0.01
2013-3-9,54.4,44.1,34.2,47.0,39.4,33.0,98,85,61,30.39,30.14,5,0,0,0.00
2013-3-10,46.8,43.7,40.7,43.0,41.0,38.0,95,90,80,30.39,30.33,5,1,0,0.01
2013-3-11,50.4,46.1,42.6,47.0,43.7,42.0,97,92,75,30.34,30.06,9,1,0,0.03
2013-3-12,53.7,50.8,47.7,51.0,49.3,47.0,99,94,83,30.05,29.96,19,6,0,0.04
2013-3-13,51.5,50.5,49.3,51.0,49.6,49.0,98,96,93,30.10,29.99,19,5,0,0.11
2013-3-14,52.5,50.3,48.2,50.0,47.8,46.0,98,91,80,30.04,29.93,11,3,0,0.01
2013-3-15,57.7,51.5,48.3,52.0,49.0,46.0,98,91,79,30.11,30.03,15,5,0,0.00
2013-3-16,50.8,46.6,39.3,46.0,42.8,37.0,94,87,71,30.03,29.77,21,6,0,0.02
2013-3-17,48.5,41.8,38.8,38.0,36.9,35.0,92,83,65,30.09,29.87,12,3,0,0.01
2013-3-18,53.3,44.3,39.6,42.0,38.0,35.0,92,79,57,30.14,30.00,16,5,0,0.01
2013-3-19,54.2,43.3,37.2,43.0,38.0,33.0,96,82,51,30.12,29.50,13,2,0,0.41
2013-3-20,50.8,46.4,39.3,50.0,42.5,34.0,98,86,70,29.91,29.28,33,9,0,0.52
2013-3-21,47.2,40.1,36.4,39.0,36.0,34.0,100,85,67,30.11,29.91,12,4,0,0.03
2013-3-22,46.1,39.3,35.0,36.0,33.4,29.0,95,80,56,30.28,30.11,9,2,0,0.00
2013-3-23,51.3,41.8,35.4,35.0,31.7,29.0,88,69,44,30.30,30.20,7,1,0,0.00
2013-3-24,54.7,43.6,34.5,38.0,33.9,32.0,90,71,44,30.20,30.03,4,1,0,0.00
2013-3-25,58.2,48.9,40.2,40.0,33.2,28.0,73,56,39,30.03,29.84,9,2,0,0.00
2013-3-26,62.9,50.7,45.0,44.0,41.2,38.0,87,71,49,29.92,29.86,8,2,0,0.00
2013-3-27,56.2,49.6,46.0,49.0,44.3,40.0,91,82,65,29.89,29.84,5,1,0,0.02
2013-3-28,63.4,52.4,46.2,52.0,47.6,45.0,98,84,60,30.04,29.89,5,1,0,0.04
2013-3-29,62.7,52.9,46.4,50.0,47.1,45.0,96,81,62,30.15,30.05,11,2,0,0.01
2013-3-30,59.9,51.1,43.6,50.0,46.0,43.0,98,84,63,30.16,29.98,16,5,0,0.00
2013-3-31,64.3,56.0,48.7,49.0,44.9,43.0,80,67,49,29.98,29.82,13,4,0,0.00
2013-4-1,61.7,52.4,47.5,51.0,48.1,45.0,96,86,68,30.06,29.87,11,4,0,0.00
2013-4-2,56.4,51.4,47.9,49.0,46.8,45.0,91,85,76,30.10,30.05,9,2,0,0.00
2013-4-3,62.6,52.5,46.1,50.0,46.8,45.0,97,82,59,30.09,29.86,7,1,0,0.00
2013-4-4,55.5,51.1,48.4,54.0,49.3,45.0,98,93,84,29.85,29.54,13,3,0,0.40
2013-4-5,55.1,51.6,48.3,52.0,49.7,47.0,98,93,83,29.77,29.62,20,6,0,0.82
2013-4-6,51.3,47.9,45.0,48.0,45.6,43.0,97,92,83,29.82,29.59,16,6,0,0.43
2013-4-7,46.5,43.4,40.1,45.0,42.1,39.0,97,95,91,29.79,29.42,13,2,0,0.84
2013-4-8,55.5,47.8,42.4,47.0,44.2,41.0,100,88,68,30.17,29.80,10,2,0,0.04
2013-4-9,53.6,49.0,44.4,45.0,43.6,42.0,93,82,69,30.25,30.08,10,2,0,0.00
2013-4-10,59.0,52.2,47.9,52.0,47.3,44.0,98,84,66,30.15,29.83,15,4,0,0.27
2013-4-11,52.2,47.3,43.9,45.0,41.5,37.0,96,81,59,30.20,30.10,12,3,0,0.07
2013-4-12,45.8,43.5,40.9,45.0,40.6,39.0,98,89,79,30.09,29.57,14,4,0,0.20
2013-4-13,49.2,42.7,38.1,45.0,39.9,35.0,95,90,78,29.91,29.65,15,3,0,0.35
2013-4-14,53.2,45.1,39.6,43.0,39.4,36.0,97,82,56,29.91,29.83,9,2,0,0.02
2013-4-15,52.7,45.9,40.2,45.0,40.7,39.0,96,83,61,30.09,29.85,13,2,0,0.02
2013-4-16,55.5,47.2,39.1,44.0,39.5,34.0,97,77,50,30.30,30.09,10,2,0,0.01
2013-4-17,59.0,48.6,41.1,44.0,40.6,37.0,86,75,51,30.36,30.30,9,2,0,0.00
2013-4-18,50.7,47.2,43.6,48.0,44.0,40.0,97,89,80,30.35,30.09,14,3,0,0.13
2013-4-19,53.6,50.3,47.8,53.0,49.7,47.0,99,97,94,30.09,29.96,18,4,0,0.48
2013-4-20,56.2,49.6,46.4,51.0,47.2,45.0,98,92,76,30.18,30.09,10,3,0,0.13
2013-4-21,52.9,46.8,44.3,45.0,43.2,39.0,97,87,70,30.27,30.13,14,3,0,0.09
2013-4-22,57.7,49.2,42.0,44.0,37.4,29.0,94,67,36,30.43,30.27,16,5,0,0.00
2013-4-23,60.4,51.4,41.0,42.0,36.9,29.0,88,60,32,30.33,30.15,11,2,0,0.00
2013-4-24,68.3,56.3,43.6,45.0,41.1,36.0,87,59,36,30.23,29.96,11,2,0,0.00
2013-4-25,72.5,59.5,47.5,49.0,42.8,36.0,90,56,36,30.04,29.94,8,1,0,0.00
2013-4-26,66.8,54.7,46.8,53.0,48.4,45.0,98,81,60,30.16,30.04,7,2,0,0.00
2013-4-27,56.1,53.2,51.0,49.0,46.8,43.0,91,79,67,30.11,30.05,20,5,0,0.00
2013-4-28,58.1,51.1,47.3,49.0,46.4,43.0,94,84,65,30.12,29.85,17,3,0,0.00
2013-4-29,55.9,48.4,43.7,47.0,41.5,36.0,97,79,52,30.06,29.81,12,4,0,0.15
2013-4-30,55.1,46.6,39.4,39.0,36.7,33.0,88,70,49,30.34,30.06,10,1,0,0.00
2013-5-1,61.0,50.5,39.2,42.0,38.3,35.0,91,65,40,30.48,30.35,11,2,0,0.00
2013-5-2,63.7,54.2,46.5,48.0,42.6,38.0,84,66,47,30.45,30.28,16,4,0,0.00
2013-5-3,65.1,57.0,48.3,52.0,47.4,41.0,82,71,59,30.29,30.13,15,4,0,0.00
2013-5-4,72.8,63.3,54.1,53.0,47.5,44.0,77,58,36,30.14,29.90,16,5,0,0.00
2013-5-5,78.7,67.3,53.9,53.0,48.6,44.0,82,53,33,29.90,29.68,13,3,0,0.00
2013-5-6,82.1,69.6,58.0,55.0,50.6,46.0,69,53,36,29.75,29.65,9,2,0,0.00
2013-5-7,69.7,58.6,51.3,57.0,52.8,50.0,95,82,63,29.91,29.72,12,3,0,0.00
2013-5-8,66.3,56.2,51.4,56.0,51.7,50.0,93,85,68,30.05,29.91,9,2,0,0.00
2013-5-9,69.2,56.0,49.4,57.0,51.9,49.0,100,87,61,30.12,30.02,8,1,0,0.00
2013-5-10,77.6,61.1,49.4,59.0,52.8,49.0,98,77,46,30.11,30.02,10,2,0,0.00
2013-5-11,79.4,63.1,52.4,58.0,52.0,47.0,89,69,45,30.07,29.89,7,2,0,0.00
2013-5-12,69.3,61.6,57.5,59.0,57.0,55.0,96,85,68,30.00,29.91,10,3,0,0.06
2013-5-13,62.5,56.0,49.0,58.0,51.9,43.0,95,86,65,30.08,29.84,24,6,0,0.43
2013-5-14,66.3,54.7,48.1,47.0,45.3,42.0,89,72,45,30.13,30.02,8,2,0,0.00
2013-5-15,63.8,54.0,47.9,53.0,48.3,44.0,97,82,50,30.03,29.92,11,1,0,0.04
2013-5-16,67.8,59.0,53.2,55.0,53.2,51.0,97,82,57,29.92,29.78,12,2,0,0.01
2013-5-17,63.7,56.7,52.6,53.0,50.9,49.0,94,82,63,29.96,29.85,11,3,0,0.02
2013-5-18,61.9,55.5,51.3,50.0,49.0,48.0,92,79,64,30.18,29.96,10,2,0,0.00
2013-5-19,63.4,56.3,52.1,54.0,50.5,49.0,91,81,65,30.31,30.18,8,2,0,0.00
2013-5-20,66.3,54.8,47.9,53.0,49.3,46.0,96,83,57,30.26,29.81,15,2,0,0.00
2013-5-21,55.7,49.6,46.0,51.0,47.2,45.0,97,91,75,29.81,29.69,12,2,0,0.52
2013-5-22,53.1,48.2,44.9,48.0,46.1,44.0,97,92,82,29.84,29.76,9,2,0,0.03
2013-5-23,55.6,49.1,45.0,50.0,45.7,43.0,96,88,70,29.92,29.83,19,2,0,0.06
2013-5-24,62.4,53.6,46.7,51.0,47.9,45.0,98,82,59,29.95,29.88,13,2,0,0.02
2013-5-25,62.3,54.9,50.3,51.0,48.8,47.0,93,80,58,29.95,29.87,8,2,0,0.01
2013-5-26,62.2,54.6,49.3,55.0,51.4,48.0,97,89,75,29.89,29.85,12,2,0,0.07
2013-5-27,58.7,55.4,52.3,57.0,53.6,51.0,97,93,88,29.87,29.62,12,2,0,0.27
2013-5-28,61.4,55.2,51.7,56.0,51.1,49.0,96,86,75,29.79,29.68,11,3,0,0.02
2013-5-29,58.8,53.4,49.3,52.0,50.0,48.0,97,89,76,29.87,29.60,9,2,0,0.19
2013-5-30,59.6,54.1,49.3,51.0,48.6,47.0,91,82,68,30.15,29.87,15,5,0,0.00
2013-5-31,67.7,57.4,50.2,52.0,48.6,45.0,94,75,45,30.25,30.15,7,2,0,0.00
2013-6-1,72.1,59.3,51.9,54.0,49.8,48.0,88,72,46,30.15,29.96,11,2,0,0.00
2013-6-2,70.4,61.1,53.0,55.0,52.0,49.0,92,73,55,30.00,29.95,9,2,0,0.01
2013-6-3,74.1,59.2,51.2,58.0,53.1,50.0,97,81,54,30.03,29.96,11,2,0,0.00
2013-6-4,74.6,63.3,52.4,57.0,53.2,49.0,93,72,49,30.04,29.93,14,3,0,0.00
2013-6-5,74.8,63.4,55.1,62.0,55.2,49.0,91,75,61,30.00,29.94,8,2,0,0.00
2013-6-6,60.3,58.1,55.9,53.0,52.4,51.0,89,82,76,29.95,29.94,6,2,0,0.00
2013-6-15,-200.0,0.0,200.0,-99.9,-99.9,-99.9,0,0,100,0.00,0.00,0,-999,0,0.00
2013-6-16,72.4,27.3,58.7,59.0,-35.4,-99.9,84,29,64,29.99,0.00,7,-585,0,0.00
2013-6-17,74.6,63.3,55.8,57.0,54.2,52.0,90,74,46,30.00,29.80,10,2,0,0.01
2013-6-18,72.6,62.5,55.4,55.0,52.2,48.0,94,72,44,29.88,29.78,12,2,0,0.00
2013-6-19,66.4,59.3,54.2,56.0,52.7,51.0,92,80,63,29.91,29.82,12,2,0,0.00
2013-6-20,60.7,56.3,53.2,57.0,53.3,51.0,97,89,79,30.01,29.86,9,2,0,0.27
2013-6-21,70.1,59.8,53.2,55.0,53.2,51.0,98,81,55,30.07,30.01,5,1,0,0.04
2013-6-22,78.0,65.1,53.4,58.0,54.8,52.0,96,72,45,30.02,29.76,9,1,0,0.00
2013-6-23,71.7,63.7,58.5,62.0,58.0,53.0,96,82,69,29.75,29.50,8,1,0,0.16
2013-6-24,66.8,61.3,55.8,60.0,57.1,55.0,98,87,69,29.61,29.49,14,3,0,0.11
2013-6-25,73.3,61.8,56.7,60.0,57.6,55.0,98,87,57,29.76,29.58,18,2,0,0.65
2013-6-26,69.4,62.7,57.9,62.0,59.0,57.0,97,88,74,29.98,29.75,11,2,0,0.07
2013-6-27,69.0,64.3,61.0,65.0,61.6,57.0,98,91,81,30.10,29.95,6,1,0,0.12
2013-6-28,87.1,70.8,58.8,69.0,63.3,58.0,98,79,49,30.10,29.95,9,2,0,0.00
2013-6-29,84.0,71.5,62.8,69.0,63.2,58.0,92,76,59,30.01,29.90,7,2,0,0.00
2013-6-30,89.0,73.0,60.0,70.0,62.6,56.0,87,71,54,29.92,29.76,11,3,0,0.00
2013-7-1,85.8,73.5,62.8,68.0,63.2,59.0,90,71,55,29.92,29.82,8,2,0,0.00
2013-7-2,78.9,68.4,59.2,64.0,59.0,54.0,94,73,51,30.01,29.93,17,2,0,0.00
2013-7-3,72.8,65.6,59.9,58.0,54.2,50.0,78,67,54,30.05,29.95,10,3,0,0.00
2013-7-4,70.6,62.2,57.1,57.0,55.0,52.0,91,78,61,30.03,29.93,7,2,0,0.00
2013-7-5,72.4,64.6,55.9,59.0,56.8,54.0,95,77,63,29.94,29.86,7,2,0,0.00
2013-7-6,76.2,64.4,56.2,59.0,56.4,54.0,96,77,48,29.89,29.78,11,2,0,0.00
2013-7-7,73.9,64.3,56.0,63.0,58.5,55.0,98,82,67,29.86,29.79,10,3,0,0.00
2013-7-8,79.4,62.9,55.7,63.0,56.9,54.0,95,82,56,30.00,29.85,10,3,0,0.00
2013-7-9,79.4,67.0,55.6,63.0,58.0,55.0,98,75,52,30.02,29.90,8,2,0,0.00
2013-7-10,71.7,61.5,56.5,59.0,55.5,52.0,94,81,64,29.98,29.86,9,2,0,0.00
2013-7-11,70.9,59.4,54.4,54.0,51.3,49.0,87,75,56,29.99,29.90,11,3,0,0.00
2013-7-12,66.1,58.8,53.8,56.0,50.2,-99.9,87,77,69,30.02,29.92,4,1,0,0.00
2013-7-13,73.6,63.2,52.6,56.0,51.9,48.0,85,68,46,30.11,30.02,12,2,0,0.00
2013-7-14,79.4,65.8,53.8,56.0,52.4,49.0,92,64,40,30.04,29.90,13,2,0,0.00
2013-7-15,75.7,66.7,56.6,57.0,52.7,49.0,84,62,42,29.95,29.80,14,3,0,0.00
2013-7-16,80.5,71.8,63.0,57.0,53.5,49.0,64,53,44,29.80,29.71,12,3,0,0.00
2013-7-17,72.2,65.2,60.3,59.0,57.5,54.0,89,77,53,30.09,29.78,15,4,0,0.00
2013-7-18,76.1,64.7,58.3,61.0,57.6,55.0,91,79,60,30.13,30.03,6,2,0,0.00
2013-7-19,77.9,64.4,55.7,63.0,58.4,54.0,96,82,59,30.07,29.95,11,1,0,0.00
2013-7-20,75.5,61.3,55.0,63.0,57.2,54.0,98,88,65,30.00,29.87,6,2,0,0.00
2013-7-21,74.4,62.0,54.7,63.0,57.8,54.0,99,87,67,29.89,29.81,5,1,0,0.00
2013-7-22,78.6,64.2,55.5,63.0,58.4,55.0,99,83,58,29.98,29.85,6,2,0,0.00
2013-7-23,80.2,64.8,53.5,63.0,56.3,53.0,100,77,40,29.98,29.88,12,3,0,0.00
2013-7-24,80.0,67.8,55.6,61.0,56.2,52.0,94,69,41,29.96,29.90,7,2,0,0.00
2013-7-25,81.4,67.1,52.8,60.0,56.3,52.0,97,70,47,30.01,29.93,6,2,0,0.00
2013-7-26,80.8,67.8,54.9,60.0,54.9,49.0,94,66,37,30.05,29.97,13,2,0,0.00
2013-7-27,80.2,64.5,55.0,58.0,54.1,51.0,93,71,42,30.07,29.90,12,2,0,0.00
2013-7-28,67.1,59.0,53.3,58.0,54.5,52.0,96,85,71,29.93,29.86,11,4,0,0.00
2013-7-29,77.1,63.0,55.0,59.0,55.5,53.0,92,78,54,29.91,29.86,5,1,0,0.00
2013-7-30,76.6,63.2,54.9,61.0,56.9,54.0,96,81,57,30.04,29.91,11,2,0,0.00
2013-7-31,69.7,60.9,55.5,63.0,57.8,55.0,99,90,75,30.03,29.90,5,1,0,0.00
2013-8-1,67.4,60.6,55.0,59.0,56.3,54.0,96,86,72,29.97,29.94,10,3,0,0.00
2013-8-2,60.5,59.4,57.9,59.0,57.6,56.0,98,94,88,30.04,29.95,10,2,0,0.14
2013-8-3,72.2,61.8,-90.0,62.0,57.6,-90.0,99,86,68,30.04,29.96,10,2,0,0.00
2013-8-4,76.5,65.6,55.7,64.0,59.2,55.0,97,81,59,29.97,29.85,12,3,0,0.00
2013-8-5,81.6,68.8,57.3,64.0,59.9,56.0,96,75,54,29.92,29.83,6,1,0,0.00
2013-8-6,84.4,67.5,54.1,63.0,57.0,53.0,96,71,39,29.91,29.82,9,2,0,0.00
2013-8-7,84.5,67.8,55.5,62.0,57.9,54.0,97,73,44,29.92,29.85,6,1,0,0.00
2013-8-8,80.3,65.0,57.1,63.0,58.5,56.0,97,81,56,29.94,29.84,6,2,0,0.00
2013-8-9,80.4,67.7,55.2,63.0,58.7,54.0,98,75,51,29.86,29.75,6,1,0,0.00
2013-8-10,77.5,66.3,59.3,66.0,61.3,58.0,97,84,67,29.91,29.82,18,2,0,0.18
2013-8-11,74.9,63.4,57.0,61.0,56.9,55.0,94,80,60,29.97,29.89,10,2,0,0.00
2013-8-12,76.1,64.6,57.4,61.0,57.6,55.0,93,79,55,29.98,29.91,8,2,0,0.00
2013-8-13,82.1,66.7,57.9,61.0,57.7,55.0,92,74,46,30.01,29.83,10,1,0,0.00
2013-8-14,78.3,66.0,58.1,63.0,59.0,55.0,94,79,54,29.87,29.81,9,2,0,0.02
2013-8-15,69.0,64.9,61.8,66.0,63.5,61.0,98,95,90,29.90,29.82,6,1,0,0.04
2013-8-16,82.1,53.0,-90.0,66.0,45.0,-99.9,99,75,38,29.93,29.86,11,2,0,0.01
2013-8-17,76.4,67.3,62.3,64.0,59.9,57.0,86,78,64,29.98,29.92,11,3,0,0.00
2013-8-18,76.9,65.2,58.4,63.0,58.2,55.0,95,79,62,30.03,29.98,10,2,0,0.00
2013-8-19,79.4,65.8,59.0,62.0,57.2,53.0,91,74,56,30.02,29.97,12,2,0,0.00
2013-8-20,65.6,61.2,58.9,56.0,54.0,53.0,84,77,69,30.07,30.01,5,1,0,0.00
2013-8-22,76.4,73.1,67.4,59.0,57.4,57.0,69,59,53,29.74,29.70,3,0,0,0.00
2013-8-23,73.1,66.0,60.4,61.0,58.5,57.0,91,77,61,29.79,29.73,13,4,0,0.00
2013-8-24,74.2,64.5,60.0,60.0,57.8,55.0,90,80,60,29.82,29.76,10,2,0,0.00
2013-8-25,70.6,63.8,56.5,59.0,56.2,53.0,91,77,61,29.85,29.77,7,1,0,0.00
2013-8-26,74.1,64.8,58.5,62.0,57.8,55.0,90,79,55,29.86,29.76,8,2,0,0.04
2013-8-27,78.9,67.2,60.7,63.0,59.6,55.0,91,78,58,29.86,29.70,10,2,0,0.00
2013-8-28,78.2,67.9,59.1,67.0,61.8,58.0,99,82,62,29.80,29.74,6,1,0,0.18
2013-8-29,71.7,66.6,63.5,68.0,64.7,60.0,98,93,82,29.91,29.76,9,2,0,0.41
2013-8-30,79.4,67.2,61.3,64.0,59.6,57.0,95,78,49,30.06,29.92,11,3,0,0.01
2013-8-31,73.5,64.9,56.5,61.0,58.6,55.0,96,80,65,29.99,29.75,13,3,0,0.00
2013-9-1,80.3,66.8,58.0,63.0,59.7,57.0,98,79,56,29.80,29.70,7,1,0,0.00
2013-9-2,80.2,69.1,60.8,63.0,59.6,57.0,91,73,53,29.84,29.77,11,2,0,0.00
2013-9-3,74.9,65.1,60.8,65.0,61.7,59.0,98,89,69,29.93,29.84,5,1,0,0.14
2013-9-4,71.3,63.2,58.4,64.0,60.4,58.0,98,91,77,29.96,29.90,8,2,0,0.01
2013-9-5,67.0,61.6,59.0,63.0,59.8,58.0,98,93,84,29.95,29.84,9,2,0,0.18
2013-9-6,70.0,8.8,-90.0,65.0,4.5,-99.9,99,65,83,30.05,29.85,8,2,0,1.25
2013-9-7,70.7,63.9,60.6,63.0,60.8,59.0,97,90,75,30.04,29.93,6,1,0,0.00
2013-9-8,79.3,66.3,56.7,64.0,60.3,56.0,99,83,55,30.02,29.93,9,1,0,0.00
2013-9-9,73.7,15.8,-90.0,64.0,9.6,-99.9,98,59,69,30.00,29.92,11,2,0,0.00
2013-9-10,72.0,52.7,-90.0,64.0,48.1,-99.9,98,80,74,29.94,29.81,16,4,0,0.01
2013-9-11,83.8,71.6,61.4,66.0,61.8,57.0,92,72,53,29.86,29.78,10,3,0,0.00
2013-9-12,78.6,38.4,-90.0,66.0,32.1,-99.9,99,68,63,29.91,29.83,6,1,0,0.00
2013-9-13,64.8,19.0,-90.0,62.0,15.1,-99.9,98,69,88,29.91,29.81,4,1,0,0.01
2013-9-14,68.4,39.7,-90.0,62.0,36.6,-99.9,98,80,81,29.82,29.66,7,2,0,0.00
2013-9-15,61.8,-15.4,-90.0,60.0,-20.7,-99.9,99,48,94,29.78,29.65,10,2,0,0.23
2013-9-16,67.0,60.7,58.1,61.0,58.4,55.0,96,92,81,29.86,29.77,9,2,0,0.01
2013-9-17,62.8,58.8,55.8,56.0,54.6,53.0,94,86,74,29.85,29.78,3,0,0,0.00
2013-9-18,69.4,60.0,54.2,56.0,53.5,51.0,96,81,57,29.98,29.85,11,2,0,0.00
2013-9-19,79.6,64.9,51.4,57.0,53.1,50.0,94,69,39,29.95,29.67,5,0,0,0.00
2013-9-20,72.2,62.6,56.8,58.0,54.9,51.0,95,77,59,29.66,29.50,11,3,0,0.14
2013-9-21,71.3,60.3,55.5,59.0,55.8,54.0,97,86,61,29.63,29.55,7,1,0,0.00
2013-9-22,60.8,57.4,55.0,57.0,54.5,51.0,96,90,74,29.63,29.47,16,5,0,0.37
2013-9-23,60.6,56.1,53.9,56.0,53.4,49.0,96,90,80,29.87,29.63,13,4,0,0.32
2013-9-24,62.7,54.4,50.1,53.0,50.7,49.0,97,88,66,29.86,29.75,9,2,0,0.03
2013-9-25,58.4,52.8,49.9,51.0,49.6,48.0,97,89,70,29.94,29.77,11,3,0,0.06
2013-9-26,63.8,53.6,48.0,53.0,49.8,47.0,98,87,64,30.03,29.94,7,1,0,0.00
2013-9-27,56.0,54.3,52.1,54.0,51.8,49.0,95,91,86,30.02,29.75,14,5,0,0.06
2013-9-28,60.2,55.7,52.4,59.0,54.6,51.0,98,96,93,29.75,29.24,16,5,0,1.47
2013-9-29,58.8,53.7,52.4,53.0,51.2,49.0,96,91,75,29.46,29.06,17,7,0,0.68
2013-9-30,57.1,52.6,49.7,52.0,49.5,46.0,96,89,79,29.82,29.32,23,6,0,0.13
2013-10-1,57.1,51.8,48.0,51.0,48.3,46.0,96,88,73,30.01,29.81,12,4,0,0.17
2013-10-2,53.2,33.2,48.8,49.0,-2.4,-99.9,97,61,85,30.08,29.96,12,-342,0,0.21
2013-10-3,51.5,3.8,49.6,48.0,-89.0,-99.9,91,7,85,30.36,30.09,0,-925,0,0.00
2013-10-4,62.4,21.2,46.3,51.0,-43.1,-99.9,98,32,60,30.38,30.26,4,-606,0,0.00
2013-10-5,65.8,55.6,47.1,53.0,49.3,46.0,97,81,56,30.27,30.04,4,1,0,0.00
2013-10-6,71.0,57.7,48.2,54.0,50.4,46.0,98,79,47,30.03,29.79,10,2,0,0.03
2013-10-7,59.9,54.9,52.1,53.0,50.8,48.0,96,86,66,29.91,29.79,16,5,0,0.02
2013-10-8,52.4,50.7,49.7,50.0,48.4,47.0,94,91,88,29.91,29.87,7,1,0,0.09
2013-10-19,-200.0,0.0,200.0,-99.9,-99.9,-99.9,0,0,100,30.23,0.00,4,-19,0,0.00
2013-10-20,48.0,-59.7,-90.0,47.0,-78.5,-99.9,97,15,96,30.24,30.17,5,0,0,0.00
2013-10-21,-90.0,-90.0,-90.0,-99.9,-99.9,-99.9,0,0,100,30.18,30.11,6,1,0,0.00
2013-10-22,-90.0,-85.3,-90.0,-99.9,-99.9,-99.9,0,0,100,30.16,30.07,6,1,0,0.01
2013-10-23,53.6,5.6,-90.0,53.0,-50.9,-99.9,100,33,94,30.09,29.95,6,0,0,0.01
2013-10-24,47.0,12.8,-90.0,47.0,-55.2,-99.9,99,31,98,30.03,29.95,3,0,0,0.01
2013-10-25,51.3,16.6,-90.0,51.0,-47.2,-99.9,100,45,95,30.31,30.04,3,0,0,0.02
2013-10-26,53.9,50.4,47.5,50.0,47.7,47.0,98,90,83,30.24,30.10,10,1,0,0.00
2013-10-27,55.5,50.9,46.4,50.0,47.1,44.0,98,87,72,30.10,29.80,19,4,0,0.17
2013-10-28,55.1,52.4,48.3,45.0,39.4,36.0,85,62,48,29.85,29.79,21,5,0,0.00
2013-10-29,57.5,47.9,40.1,44.0,39.8,37.0,93,74,54,29.94,29.85,5,1,0,0.00
2013-10-30,55.2,48.9,42.4,49.0,43.0,38.0,86,80,70,30.03,29.93,19,2,0,0.01
2013-10-31,55.0,51.5,49.2,52.0,49.2,46.0,95,92,82,30.16,29.99,18,2,0,0.01
2013-11-1,59.0,54.2,51.8,52.0,50.9,49.0,97,89,74,30.18,29.75,5,1,0,0.00
2013-11-2,53.9,50.3,45.0,52.0,46.2,41.0,98,86,70,29.78,29.38,34,7,0,0.47
2013-11-3,53.4,45.4,42.0,44.0,41.5,40.0,95,86,68,30.01,29.79,7,1,0,0.01
2013-11-4,49.6,44.7,39.4,43.0,40.2,39.0,97,85,70,30.09,29.95,4,0,0,0.03
2013-11-5,50.0,47.0,43.7,50.0,45.9,42.0,98,96,89,30.16,29.91,6,1,0,0.01
2013-11-6,52.0,48.2,44.7,48.0,46.1,44.0,96,92,81,30.22,29.93,2,0,0,0.08
2013-11-7,50.5,49.1,47.7,50.0,47.8,46.0,98,95,87,29.92,29.61,19,6,0,0.79
2013-11-8,54.1,49.5,46.6,47.0,45.7,44.0,93,87,76,30.06,29.87,11,2,0,0.00
2013-11-9,49.9,46.3,42.8,46.0,44.1,42.0,97,92,81,30.05,29.98,4,1,0,0.07
2013-11-10,48.5,47.0,45.0,47.0,45.6,44.0,98,94,91,30.06,30.00,13,4,0,0.02
2013-11-11,57.0,49.9,46.0,49.0,46.2,45.0,96,87,69,30.07,29.91,12,2,0,0.00
2013-11-12,58.2,27.4,49.1,54.0,-20.9,-99.9,98,48,80,30.25,29.92,12,-467,0,0.14
2013-11-13,-200.0,0.0,200.0,-99.9,-99.9,-99.9,0,0,100,30.33,30.20,0,-999,0,0.00
2013-11-14,46.8,13.5,45.2,46.0,-57.5,-99.9,98,28,96,30.20,29.96,2,-708,0,0.00
2013-11-15,47.2,35.2,42.8,45.0,11.7,-99.9,98,73,89,29.96,29.23,25,-217,0,0.04
2013-11-16,-200.0,0.0,200.0,-99.9,-99.9,-99.9,0,0,100,29.67,29.25,0,-999,0,0.00
2013-11-17,51.3,24.1,48.2,48.0,-28.0,-99.9,95,45,88,29.80,29.67,18,-506,0,0.00
2013-11-18,52.2,49.7,48.2,52.0,48.8,46.0,99,97,91,29.79,29.45,14,3,0,0.66
2013-11-19,52.6,44.1,38.5,52.0,38.4,26.0,98,82,56,29.97,29.45,18,4,0,0.08
2013-11-20,41.4,37.8,34.5,33.0,29.7,27.0,83,73,64,30.41,29.98,16,3,0,0.00
2013-11-21,41.5,36.1,31.5,31.0,28.8,26.0,92,75,61,30.57,30.41,10,2,0,0.00
2013-11-22,42.3,37.7,31.7,35.0,31.7,28.0,88,79,68,30.55,30.35,11,3,0,0.00
2013-11-23,47.0,41.4,37.4,40.0,36.8,31.0,92,83,71,30.35,30.10,9,3,0,0.00
2013-11-24,46.8,25.7,38.4,43.0,-13.8,-99.9,95,56,85,30.16,30.07,6,-378,0,0.00
2013-11-25,54.4,43.0,36.8,45.0,40.4,36.0,98,91,65,30.22,30.15,5,1,0,0.01
2013-11-26,51.0,33.1,37.3,47.0,2.6,-99.9,99,62,68,30.17,30.00,6,-271,0,0.00
2013-11-27,52.9,47.1,43.3,47.0,42.8,38.0,94,85,72,30.00,29.87,5,1,0,0.00
2013-11-28,46.6,42.5,37.6,46.0,41.5,37.0,99,96,91,30.08,29.93,4,0,0,0.00
2013-11-29,47.3,44.9,41.3,46.0,43.4,40.0,97,94,87,30.21,30.08,6,1,0,0.00
2013-11-30,49.8,48.0,45.3,48.0,46.2,44.0,97,93,87,30.23,29.99,20,4,0,0.02
2013-12-1,53.5,50.6,42.8,52.0,48.4,39.0,98,92,85,29.98,29.64,21,6,0,0.02
2013-12-2,44.8,39.8,36.0,39.0,35.7,30.0,95,85,69,29.96,29.71,7,2,0,0.02
2013-12-3,37.8,35.1,31.7,30.0,26.9,24.0,86,72,59,30.22,29.97,18,5,0,0.00
2013-12-4,37.0,32.0,27.8,28.0,26.3,22.0,93,80,69,30.26,30.20,4,0,0,0.00
2013-12-5,32.8,29.6,27.6,27.0,22.6,17.0,91,75,60,30.23,30.10,4,0,0,0.00
2013-12-6,31.4,27.7,23.5,16.0,12.1,9.0,63,53,44,30.14,30.05,12,4,0,0.00
2013-12-7,28.5,24.7,21.5,15.0,10.1,6.0,69,54,43,30.34,30.14,11,2,0,0.00
2013-12-8,35.0,26.7,21.3,21.0,18.0,12.0,78,70,58,30.48,30.33,6,1,0,0.00
2013-12-9,33.7,26.7,25.2,30.0,10.7,-99.9,89,69,69,30.49,30.40,7,-103,0,0.00
2013-12-10,38.4,35.8,32.8,36.0,33.0,28.0,93,89,83,30.40,30.32,5,1,0,0.00
2013-12-11,39.8,36.5,32.4,37.0,34.5,31.0,96,92,86,30.32,30.07,1,0,0,0.00
2013-12-12,42.3,38.7,34.6,42.0,37.3,34.0,98,95,83,30.07,29.95,10,3,0,0.09
2013-12-13,47.9,45.4,42.0,47.0,44.5,41.0,98,97,94,30.31,30.03,9,2,0,0.00
2013-12-14,48.6,46.5,44.5,46.0,44.7,43.0,96,93,89,30.34,30.22,11,3,0,0.01
2013-12-15,50.0,47.8,45.7,49.0,47.0,45.0,100,96,91,30.35,30.22,16,4,0,0.06
2013-12-16,50.5,45.2,40.7,46.0,43.9,40.0,98,95,84,30.39,30.17,3,0,0,0.00
2013-12-17,43.9,33.1,40.0,43.0,11.9,-99.9,100,77,93,30.17,30.01,9,1,0,0.01
2013-12-18,44.1,41.7,37.8,42.0,37.9,32.0,98,87,66,30.06,29.92,16,3,0,0.04
2013-12-19,39.5,36.5,33.8,36.0,27.9,24.0,91,71,61,30.25,30.07,13,2,0,0.00
2013-12-20,43.7,37.0,31.8,43.0,35.1,27.0,98,93,75,30.10,29.61,20,4,0,0.16
2013-12-21,44.2,42.1,39.7,44.0,42.0,39.0,99,99,98,30.07,29.75,6,1,0,0.15
2013-12-22,48.8,46.9,44.4,49.0,46.9,44.0,100,99,99,30.19,30.05,14,2,0,0.25
2013-12-23,54.1,48.3,43.3,50.0,46.2,41.0,99,92,81,30.41,30.02,23,5,0,0.01
2013-12-24,47.6,42.2,38.7,43.0,39.8,38.0,96,91,76,30.53,30.42,4,0,0,0.00
2013-12-25,41.9,36.7,32.5,39.0,35.6,32.0,98,95,86,30.44,30.31,2,0,0,0.00
2013-12-26,40.8,37.8,35.8,40.0,37.3,35.0,99,98,95,30.32,30.12,4,0,0,0.02
2013-12-27,45.0,27.3,36.3,45.0,-9.7,-99.9,99,62,98,30.28,30.02,12,2,0,0.03
2013-12-28,46.3,43.4,38.7,46.0,43.0,38.0,99,98,93,30.43,30.28,3,0,0,0.00
2013-12-29,42.2,33.7,36.9,42.0,17.6,-99.9,99,82,96,30.39,30.22,5,0,0,0.00
2013-12-30,44.0,41.8,39.7,42.0,41.0,39.0,99,97,93,30.23,30.04,7,1,0,0.01
2013-12-31,44.9,44.0,42.4,44.0,43.1,42.0,98,96,90,30.28,30.09,5,1,0,0.01
2014-1-1,43.3,40.6,-90.0,43.0,40.1,-99.9,100,97,95,30.31,30.15,4,0,0,0.01
2014-1-2,49.5,45.4,42.5,46.0,43.6,42.0,99,94,81,30.15,29.80,12,3,0,0.48